Location: Lawrence Hall of Science
(37.8785°N, 122.2415°W)
Time: 04:22:26
(UTC-07:00)

Cosmos 1461 - Visible Passes

Search period start: 31 July 2015 00:00
Search period end: 10 August 2015 00:00
Orbit: 508 x 676 km, 65.0° (Epoch: 31 July)

Date Brightness Start Highest point End Pass type
(mag) Time Alt. Az. Time Alt. Az. Time Alt. Az.
31 Jul 6.2 00:16:30 10° NW 00:17:30 10° NW 00:18:17 10° NNW visible
31 Jul 4.4 21:04:32 10° SSE 21:07:10 17° ESE 21:10:01 10° ENE visible
31 Jul 4.1 22:42:03 10° SW 22:46:07 43° NW 22:50:25 10° NNE visible
01 Aug 6.6 05:31:39 10° NNE 05:33:25 12° NE 05:35:24 10° ENE visible
01 Aug 3.7 21:12:05 10° S 21:15:45 30° ESE 21:19:40 10° NE visible
01 Aug 5.2 22:51:27 10° WSW 22:55:06 26° NW 22:58:53 10° N visible
02 Aug 6.2 05:39:19 10° N 05:42:37 18° NE 05:46:02 10° E visible
02 Aug 3.0 21:20:18 10° SSW 21:24:25 57° ESE 21:28:48 10° NE visible
02 Aug 6.0 23:01:21 10° W 23:04:12 16° NW 23:07:01 10° N visible
03 Aug 3.1 21:28:56 10° SW 21:33:10 78° WNW 21:37:41 10° NNE visible
03 Aug 6.5 23:12:25 10° NW 23:13:24 10° NW 23:14:12 10° NNW visible
04 Aug 4.3 21:37:56 10° SW 21:42:01 43° NW 21:46:20 10° NNE visible
05 Aug 6.7 04:27:32 10° NNE 04:29:20 12° NE 04:31:20 10° ENE visible
05 Aug 5.4 21:47:19 10° WSW 21:51:00 26° NW 21:54:47 10° N visible
06 Aug 6.2 04:35:12 10° N 04:38:30 19° NE 04:41:56 10° E visible
06 Aug 6.2 21:57:13 10° W 22:00:05 16° NW 22:02:55 10° N visible
07 Aug 5.4 04:43:25 10° N 04:47:35 29° NE 04:51:46 10° ESE visible
07 Aug 6.7 22:08:17 10° NW 22:09:16 10° NW 22:10:04 10° NNW visible
08 Aug 4.4 04:51:53 10° NNW 04:56:32 47° NE 05:01:09 10° SE visible
08 Aug 4.5 20:33:46 10° SW 20:37:52 43° NW 20:42:12 10° NNE visible
09 Aug 6.5 03:23:22 10° NNE 03:25:11 12° NE 03:27:13 10° ENE visible
09 Aug 3.3 05:00:31 10° NNW 05:05:23 80° ENE 05:10:09 10° SSE visible
09 Aug 5.6 20:43:10 10° WSW 20:46:50 26° NW 20:50:38 10° N visible
